Flag for Germany Weather past 2 weeks in Riesa, Saxony, Germany

Now
34 °F

Overcast.


Feels Like: 30 °F
Forecast: 33 / 45 °F
Wind: 5 mph from West

Location: Dresden-Klotzsche

Current Time: Feb 28, 2015 at 12:39:02 AM

Latest Report: Feb 28, 2015 at 12:00 AM


Visibility: 8 mi

Pressure: 30.07 "Hg

Humidity: 83%

Dew point: 29 °F

Location of RiesaLocation

Historic Weather in Riesa — Graph

°F

Riesa temperature yesterday

Maximum temperature yesterday: 48 °F (at 3:00 PM)
Minimum temperature yesterday: 29 °F (at 5:00 AM)
Average temperature yesterday: 39 °F

Past Weeks' High & Low Weather Summary

 TemperatureHumidityPressure
High53 °F (Feb 20, 3:00 PM)97% (Feb 17, 6:00 PM)30.76 "Hg (Feb 17, 6:00 PM)
Low25 °F (Feb 20, 8:00 AM)34% (Feb 26, 3:00 PM)29.44 "Hg (Feb 21, 2:00 PM)
Average37 °F77%30.05 "Hg
* Reported Feb 12 11:00 PM — Feb 27 11:00 PM, Riesa, Weather by CustomWeather, © 2015

Note: Actual official high and low records may vary slightly from our data, if they occured in-between our weather recording intervals... More about our weather records

Advertising

Riesa weather history for previous 24 hours

 ConditionsComfort  
Time TempWeatherWind HumidityBarometerVisibility
11:00 PM
Fri, Feb 27
35 °FPassing clouds.3 mph79%30.05 "Hg9 mi
9:00 PM37 °FClear.3 mph74%30.01 "Hg11 mi
8:00 PM40 °FClear.2 mph69%29.98 "Hg12 mi
7:00 PM42 °FPassing clouds.1 mph62%29.96 "Hg11 mi
6:00 PM45 °FPassing clouds.2 mph57%29.93 "Hg7 mi
5:00 PM46 °FSunny.3 mph54%29.90 "Hg12 mi
3:00 PM48 °FPassing clouds.3 mph49%29.88 "Hg11 mi
2:00 PM48 °FPassing clouds.3 mph49%29.88 "Hg12 mi
1:00 PM47 °FPassing clouds.5 mph51%29.90 "Hg12 mi
12:00 PM46 °FSunny.6 mph57%29.90 "Hg7 mi
11:00 AM43 °FSunny.6 mph60%29.90 "Hg7 mi
10:00 AM41 °FSunny.6 mph70%29.92 "Hg6 mi
9:00 AM37 °FSunny.5 mph78%29.92 "Hg6 mi
8:00 AM33 °FSunny.3 mph86%29.93 "Hg47 mi
7:00 AM32 °FSunny.6 mph86%29.93 "Hg6 mi
6:00 AM32 °FClear.6 mph87%29.94 "Hg9 mi
5:00 AM29 °FClear.3 mph91%29.95 "Hg10 mi
4:00 AM33 °FClear.6 mph82%29.95 "Hg10 mi
3:00 AM33 °FClear.5 mph81%29.97 "Hg11 mi
2:00 AM34 °FClear.5 mph78%30.00 "Hg11 mi
1:00 AM34 °FClear.5 mph76%30.01 "Hg12 mi
12:00 AM33 °FClear.3 mph73%30.03 "Hg13 mi
Weather by CustomWeather, © 2015

See weather overviewHow to use our weather pages